QPF
0.00 0.00 0.00 0.00 0.01 0.01 0.01 0.01 0.02 0.02 0.03 0.03 0.04 0.06 0.06 0.05 0.04 0.03 0.03 0.04 0.05 0.06 0.09 0.07 0.07 0.05 0.07 0.09 0.07 0.06 0.05 0.07 0.06 0.07 0.06 0.06 0.06 0.06 0.06 0.04 0.03 0.03 0.03
0.01 0.01 0.00 0.00 0.01 0.01 0.01 0.01 0.02 0.02 0.02 0.02 0.03 0.05 0.05 0.04 0.04 0.04 0.03 0.04 0.04 0.05 0.06 0.09 0.07 0.07 0.07 0.08 0.08 0.08 0.07 0.07 0.08 0.09 0.09 0.08 0.07 0.06 0.05 0.05 0.05 0.05 0.06
0.01 0.01 0.00 0.00 0.00 0.01 0.01 0.01 0.02 0.02 0.02 0.02 0.02 0.02 0.03 0.03 0.03 0.03 0.04 0.04 0.04 0.04 0.04 0.05 0.06 0.06 0.06 0.09 0.10 0.09 0.11 0.11 0.10 0.09 0.11 0.12 0.10 0.07 0.05 0.04 0.04 0.05 0.05
0.01 0.01 0.00 0.00 0.00 0.02 0.02 0.02 0.02 0.02 0.02 0.02 0.03 0.03 0.03 0.03 0.02 0.02 0.04 0.04 0.03 0.02 0.01 0.02 0.03 0.04 0.04 0.07 0.08 0.07 0.10 0.11 0.11 0.09 0.08 0.09 0.09 0.09 0.07 0.06 0.04 0.04 0.04
0.01 0.01 0.00 0.00 0.00 0.00 0.01 0.02 0.02 0.02 0.02 0.03 0.03 0.03 0.01 0.01 0.01 0.01 0.02 0.03 0.02 0.01 0.01 0.01 0.02 0.03 0.03 0.04 0.04 0.06 0.07 0.06 0.08 0.08 0.06 0.07 0.08 0.07 0.08 0.06 0.05 0.05 0.05
0.00 0.00 0.01 0.00 0.00 0.00 0.01 0.02 0.02 0.01 0.02 0.03 0.01 0.01 0.01 0.01 0.01 0.03 0.04 0.04 0.03 0.02 0.02 0.01 0.02 0.03 0.03 0.03 0.04 0.05 0.05 0.05 0.07 0.08 0.08 0.07 0.08 0.10 0.11 0.08 0.05 0.06 0.05
0.00 0.00 0.00 0.00 0.00 0.01 0.02 0.01 0.01 0.01 0.02 0.02 0.02 0.01 0.00 0.00 0.01 0.02 0.03 0.03 0.03 0.02 0.01 0.01 0.02 0.02 0.02 0.02 0.03 0.04 0.04 0.05 0.06 0.06 0.06 0.06 0.08 0.10 0.11 0.09 0.06 0.06 0.04
0.00 0.00 0.00 0.00 0.00 0.01 0.02 0.01 0.01 0.02 0.02 0.01 0.01 0.01 0.00 0.01 0.00 0.01 0.01 0.02 0.03 0.02 0.01 0.01 0.01 0.02 0.03 0.02 0.04 0.04 0.04 0.04 0.04 0.03 0.05 0.06 0.07 0.07 0.08 0.08 0.08 0.06 0.05
0.00 0.00 0.00 0.00 0.00 0.02 0.02 0.01 0.01 0.02 0.02 0.01 0.00 0.00 0.01 0.01 0.01 0.01 0.01 0.01 0.02 0.01 0.01 0.01 0.02 0.02 0.04 0.05 0.05 0.04 0.04 0.04 0.04 0.04 0.06 0.05 0.05 0.04 0.06 0.08 0.09 0.07 0.07
0.00 0.00 0.00 0.00 0.01 0.01 0.01 0.01 0.01 0.01 0.01 0.01 0.01 0.00 0.01 0.01 0.01 0.01 0.01 0.01 0.01 0.02 0.01 0.02 0.02 0.03 0.04 0.05 0.06 0.05 0.05 0.05 0.05 0.04 0.04 0.03 0.03 0.03 0.03 0.05 0.07 0.08 0.08
0.00 0.00 0.00 0.00 0.01 0.01 0.00 0.01 0.01 0.01 0.01 0.01 0.01 0.01 0.01 0.01 0.01 0.02 0.02 0.02 0.01 0.01 0.02 0.02 0.02 0.03 0.03 0.03 0.03 0.03 0.04 0.04 0.04 0.03 0.03 0.02 0.02 0.02 0.03 0.04 0.05 0.07 0.09
0.00 0.00 0.00 0.00 0.01 0.01 0.00 0.00 0.01 0.01 0.01 0.01 0.02 0.01 0.01 0.01 0.01 0.01 0.01 0.01 0.01 0.01 0.01 0.01 0.01 0.02 0.02 0.02 0.02 0.02 0.02 0.02 0.02 0.03 0.03 0.03 0.02 0.02 0.03 0.04 0.04 0.06 0.07
0.00 0.00 0.00 0.01 0.01 0.01 0.01 0.00 0.01 0.01 0.01 0.01 0.01 0.01 0.01 0.01 0.01 0.01 0.01 0.00 0.00 0.00 0.01 0.01 0.01 0.02 0.02 0.01 0.01 0.01 0.01 0.01 0.01 0.02 0.02 0.02 0.03 0.02 0.02 0.03 0.03 0.04 0.05
0.00 0.00 0.01 0.01 0.01 0.01 0.02 0.02 0.02 0.01 0.01 0.01 0.01 0.01 0.01 0.01 0.00 0.00 0.00 0.00 0.00 0.00 0.01 0.01 0.01 0.01 0.01 0.01 0.01 0.01 0.01 0.01 0.01 0.01 0.01 0.02 0.03 0.03 0.03 0.04 0.04 0.04 0.05
0.00 0.00 0.00 0.00 0.01 0.02 0.06 0.08 0.05 0.02 0.02 0.01 0.01 0.00 0.00 0.00 0.00 0.00 0.00 0.00 0.01 0.01 0.01 0.01 0.01 0.00 0.00 0.00 0.01 0.01 0.01 0.01 0.01 0.01 0.01 0.02 0.02 0.03 0.04 0.06 0.05 0.04 0.05
0.00 0.00 0.00 0.01 0.01 0.03 0.05 0.06 0.05 0.03 0.01 0.01 0.01 0.00 0.00 0.00 0.00 0.01 0.01 0.00 0.01 0.01 0.01 0.00 0.00 0.00 0.00 0.00 0.00 0.00 0.01 0.01 0.01 0.01 0.01 0.02 0.02 0.02 0.04 0.06 0.07 0.07 0.05
0.00 0.01 0.01 0.01 0.02 0.02 0.04 0.04 0.02 0.01 0.01 0.01 0.01 0.01 0.01 0.00 0.00 0.01 0.00 0.01 0.01 0.01 0.01 0.01 0.00 0.00 0.00 0.00 0.00 0.00 0.00 0.00 0.01 0.01 0.02 0.04 0.03 0.03 0.04 0.05 0.06 0.05 0.04
0.01 0.02 0.03 0.06 0.07 0.06 0.05 0.03 0.02 0.01 0.01 0.00 0.01 0.01 0.01 0.01 0.01 0.01 0.01 0.02 0.02 0.01 0.02 0.02 0.00 0.00 0.00 0.00 0.00 0.00 0.01 0.01 0.01 0.02 0.04 0.04 0.04 0.04 0.03 0.04 0.05 0.04 0.03
0.01 0.02 0.04 0.08 0.10 0.07 0.04 0.02 0.02 0.01 0.01 0.00 0.01 0.01 0.01 0.01 0.00 0.01 0.01 0.01 0.01 0.01 0.01 0.01 0.00 0.00 0.00 0.00 0.00 0.02 0.01 0.01 0.01 0.02 0.02 0.01 0.02 0.02 0.02 0.02 0.03 0.03 0.02
0.01 0.03 0.04 0.03 0.02 0.01 0.01 0.01 0.01 0.01 0.01 0.01 0.01 0.01 0.00 0.00 0.01 0.01 0.01 0.00 0.01 0.01 0.01 0.00 0.00 0.01 0.00 0.00 0.00 0.00 0.00 0.00 0.00 0.01 0.00 0.00 0.00 0.00 0.01 0.02 0.02 0.01 0.01
0.03 0.04 0.03 0.02 0.02 0.01 0.01 0.02 0.02 0.02 0.01 0.01 0.01 0.01 0.01 0.01 0.01 0.01 0.01 0.01 0.01 0.01 0.01 0.01 0.01 0.01 0.00 0.00 0.00 0.00 0.00 0.00 0.00 0.00 0.00 0.00 0.00 0.00 0.01 0.02 0.03 0.04 0.02
0.03 0.03 0.03 0.03 0.02 0.02 0.02 0.03 0.04 0.04 0.03 0.02 0.02 0.01 0.01 0.01 0.01 0.01 0.01 0.02 0.01 0.01 0.02 0.02 0.01 0.01 0.00 0.00 0.00 0.01 0.01 0.00 0.00 0.01 0.01 0.00 0.00 0.00 0.00 0.01 0.03 0.03 0.03
0.03 0.03 0.03 0.03 0.02 0.02 0.02 0.03 0.06 0.10 0.07 0.03 0.02 0.02 0.02 0.02 0.02 0.02 0.01 0.01 0.01 0.00 0.01 0.01 0.01 0.01 0.01 0.01 0.01 0.01 0.01 0.01 0.02 0.02 0.02 0.01 0.01 0.00 0.00 0.01 0.01 0.02 0.03
0.03 0.03 0.02 0.02 0.02 0.02 0.02 0.03 0.06 0.06 0.03 0.02 0.03 0.03 0.02 0.02 0.02 0.02 0.02 0.01 0.01 0.01 0.01 0.02 0.02 0.02 0.02 0.02 0.02 0.02 0.03 0.03 0.03 0.02 0.03 0.02 0.01 0.01 0.01 0.01 0.01 0.01 0.02
0.02 0.01 0.01 0.01 0.01 0.01 0.02 0.02 0.02 0.02 0.02 0.01 0.01 0.01 0.01 0.01 0.01 0.01 0.01 0.01 0.01 0.02 0.02 0.02 0.02 0.01 0.02 0.02 0.03 0.02 0.02 0.02 0.02 0.03 0.03 0.02 0.01 0.01 0.01 0.01 0.01 0.01 0.02
0.02 0.01 0.01 0.01 0.01 0.01 0.02 0.02 0.03 0.02 0.02 0.01 0.01 0.00 0.00 0.01 0.00 0.00 0.01 0.01 0.01 0.01 0.02 0.01 0.01 0.01 0.01 0.01 0.01 0.02 0.02 0.03 0.03 0.02 0.01 0.01 0.01 0.01 0.01 0.01 0.01 0.01 0.02
MSLP
1016.01 1016.12 1016.22 1016.33 1016.43 1016.54 1016.65 1016.76 1016.86 1016.92 1016.94 1016.91 1016.83 1016.70 1016.54 1016.36 1016.20 1016.07 1015.97 1015.91 1015.88 1015.85 1015.84 1015.81 1015.77 1015.72 1015.67 1015.62 1015.57 1015.52 1015.45 1015.35 1015.22 1015.03 1014.80 1014.54 1014.27 1014.02 1013.83 1013.73 1013.73 1013.87 1014.11
1015.70 1015.86 1016.02 1016.17 1016.30 1016.41 1016.52 1016.62 1016.72 1016.79 1016.84 1016.84 1016.80 1016.71 1016.58 1016.42 1016.25 1016.09 1015.96 1015.87 1015.81 1015.79 1015.78 1015.78 1015.78 1015.76 1015.73 1015.68 1015.61 1015.53 1015.43 1015.30 1015.14 1014.95 1014.72 1014.48 1014.24 1014.02 1013.85 1013.76 1013.77 1013.88 1014.11
1015.29 1015.50 1015.72 1015.91 1016.07 1016.21 1016.32 1016.43 1016.53 1016.63 1016.71 1016.76 1016.77 1016.73 1016.64 1016.51 1016.35 1016.18 1016.03 1015.92 1015.85 1015.82 1015.82 1015.84 1015.86 1015.86 1015.84 1015.78 1015.70 1015.58 1015.44 1015.27 1015.09 1014.90 1014.69 1014.49 1014.30 1014.13 1014.01 1013.96 1014.00 1014.12 1014.34
1014.81 1015.08 1015.36 1015.60 1015.80 1015.96 1016.08 1016.20 1016.32 1016.44 1016.57 1016.68 1016.76 1016.78 1016.74 1016.64 1016.50 1016.33 1016.17 1016.04 1015.96 1015.92 1015.92 1015.95 1015.99 1016.00 1015.98 1015.92 1015.81 1015.66 1015.48 1015.28 1015.09 1014.89 1014.71 1014.55 1014.42 1014.32 1014.27 1014.28 1014.36 1014.50 1014.72
1014.35 1014.67 1015.00 1015.29 1015.53 1015.71 1015.86 1015.99 1016.12 1016.28 1016.44 1016.60 1016.74 1016.83 1016.84 1016.79 1016.67 1016.51 1016.34 1016.20 1016.09 1016.04 1016.04 1016.08 1016.12 1016.14 1016.12 1016.05 1015.92 1015.75 1015.55 1015.33 1015.12 1014.93 1014.77 1014.65 1014.57 1014.54 1014.55 1014.61 1014.73 1014.91 1015.14
1013.96 1014.33 1014.71 1015.04 1015.32 1015.52 1015.68 1015.81 1015.96 1016.13 1016.32 1016.53 1016.71 1016.85 1016.92 1016.90 1016.81 1016.66 1016.49 1016.33 1016.21 1016.14 1016.13 1016.16 1016.21 1016.24 1016.22 1016.15 1016.02 1015.84 1015.62 1015.39 1015.17 1014.99 1014.84 1014.75 1014.71 1014.72 1014.77 1014.87 1015.03 1015.23 1015.48
1013.70 1014.10 1014.52 1014.89 1015.19 1015.40 1015.56 1015.68 1015.83 1016.00 1016.20 1016.43 1016.65 1016.83 1016.93 1016.95 1016.88 1016.74 1016.56 1016.39 1016.26 1016.18 1016.16 1016.18 1016.23 1016.27 1016.27 1016.21 1016.09 1015.91 1015.69 1015.46 1015.24 1015.05 1014.91 1014.83 1014.80 1014.82 1014.89 1015.01 1015.18 1015.40 1015.66
1013.56 1013.99 1014.44 1014.83 1015.13 1015.34 1015.48 1015.59 1015.71 1015.87 1016.06 1016.29 1016.52 1016.72 1016.86 1016.90 1016.84 1016.72 1016.55 1016.37 1016.23 1016.14 1016.11 1016.13 1016.19 1016.24 1016.26 1016.23 1016.13 1015.97 1015.77 1015.54 1015.32 1015.12 1014.97 1014.87 1014.82 1014.82 1014.88 1014.99 1015.16 1015.38 1015.67
1013.50 1013.95 1014.41 1014.80 1015.10 1015.30 1015.42 1015.50 1015.58 1015.71 1015.89 1016.10 1016.34 1016.54 1016.69 1016.75 1016.72 1016.61 1016.45 1016.28 1016.14 1016.05 1016.02 1016.05 1016.12 1016.19 1016.23 1016.23 1016.16 1016.03 1015.85 1015.64 1015.41 1015.20 1015.03 1014.89 1014.80 1014.76 1014.78 1014.85 1015.00 1015.22 1015.51
1013.44 1013.90 1014.36 1014.76 1015.04 1015.21 1015.30 1015.36 1015.41 1015.51 1015.66 1015.86 1016.09 1016.30 1016.46 1016.54 1016.53 1016.45 1016.32 1016.16 1016.04 1015.95 1015.93 1015.97 1016.05 1016.14 1016.22 1016.24 1016.21 1016.11 1015.95 1015.75 1015.53 1015.30 1015.09 1014.91 1014.77 1014.67 1014.63 1014.66 1014.77 1014.97 1015.27
1013.30 1013.78 1014.23 1014.61 1014.88 1015.03 1015.10 1015.14 1015.17 1015.25 1015.39 1015.59 1015.81 1016.03 1016.21 1016.32 1016.34 1016.29 1016.19 1016.07 1015.96 1015.90 1015.89 1015.95 1016.04 1016.14 1016.24 1016.29 1016.28 1016.21 1016.07 1015.88 1015.66 1015.43 1015.19 1014.96 1014.77 1014.61 1014.51 1014.49 1014.55 1014.72 1015.00
1013.06 1013.54 1013.99 1014.35 1014.60 1014.75 1014.82 1014.85 1014.89 1014.97 1015.12 1015.32 1015.56 1015.79 1015.99 1016.13 1016.19 1016.18 1016.12 1016.03 1015.95 1015.91 1015.92 1015.98 1016.08 1016.19 1016.29 1016.35 1016.36 1016.31 1016.19 1016.02 1015.80 1015.56 1015.31 1015.05 1014.82 1014.62 1014.47 1014.40 1014.42 1014.55 1014.80
1012.75 1013.22 1013.66 1014.01 1014.26 1014.41 1014.49 1014.54 1014.61 1014.72 1014.89 1015.12 1015.38 1015.63 1015.86 1016.02 1016.11 1016.13 1016.11 1016.05 1016.00 1015.98 1016.00 1016.06 1016.15 1016.25 1016.35 1016.41 1016.42 1016.38 1016.27 1016.11 1015.91 1015.68 1015.43 1015.17 1014.92 1014.70 1014.52 1014.41 1014.39 1014.48 1014.69
1012.46 1012.92 1013.34 1013.68 1013.93 1014.10 1014.21 1014.30 1014.42 1014.58 1014.79 1015.04 1015.32 1015.60 1015.84 1016.01 1016.12 1016.16 1016.15 1016.12 1016.08 1016.07 1016.08 1016.14 1016.22 1016.30 1016.38 1016.42 1016.43 1016.38 1016.28 1016.14 1015.96 1015.75 1015.53 1015.29 1015.06 1014.84 1014.65 1014.52 1014.47 1014.51 1014.67
1012.32 1012.77 1013.17 1013.50 1013.75 1013.94 1014.09 1014.24 1014.41 1014.62 1014.87 1015.15 1015.44 1015.72 1015.94 1016.11 1016.20 1016.24 1016.23 1016.19 1016.15 1016.13 1016.14 1016.18 1016.23 1016.29 1016.34 1016.36 1016.34 1016.29 1016.20 1016.07 1015.92 1015.75 1015.56 1015.37 1015.17 1014.98 1014.81 1014.68 1014.61 1014.61 1014.70
1012.44 1012.88 1013.26 1013.57 1013.83 1014.04 1014.23 1014.43 1014.65 1014.90 1015.18 1015.48 1015.76 1016.00 1016.19 1016.31 1016.36 1016.35 1016.30 1016.24 1016.19 1016.15 1016.14 1016.16 1016.19 1016.22 1016.23 1016.22 1016.18 1016.11 1016.02 1015.90 1015.77 1015.64 1015.51 1015.36 1015.22 1015.08 1014.94 1014.82 1014.73 1014.70 1014.73
1012.91 1013.33 1013.69 1013.98 1014.24 1014.46 1014.68 1014.92 1015.17 1015.45 1015.74 1016.01 1016.25 1016.43 1016.54 1016.58 1016.56 1016.48 1016.38 1016.28 1016.19 1016.13 1016.10 1016.10 1016.10 1016.11 1016.09 1016.05 1015.98 1015.89 1015.78 1015.67 1015.55 1015.45 1015.35 1015.26 1015.17 1015.07 1014.97 1014.87 1014.79 1014.72 1014.71
1013.72 1014.12 1014.45 1014.72 1014.96 1015.19 1015.43 1015.68 1015.95 1016.23 1016.49 1016.72 1016.89 1016.98 1017.00 1016.93 1016.80 1016.64 1016.47 1016.32 1016.19 1016.11 1016.07 1016.06 1016.05 1016.04 1016.00 1015.93 1015.82 1015.70 1015.56 1015.42 1015.30 1015.20 1015.12 1015.05 1015.00 1014.94 1014.87 1014.79 1014.70 1014.62 1014.56
1014.77 1015.15 1015.44 1015.69 1015.91 1016.13 1016.37 1016.62 1016.89 1017.14 1017.37 1017.53 1017.61 1017.60 1017.51 1017.33 1017.10 1016.85 1016.61 1016.41 1016.27 1016.18 1016.13 1016.12 1016.12 1016.10 1016.04 1015.94 1015.79 1015.62 1015.43 1015.24 1015.08 1014.94 1014.84 1014.77 1014.72 1014.67 1014.62 1014.55 1014.46 1014.37 1014.28
1015.90 1016.24 1016.51 1016.73 1016.92 1017.13 1017.35 1017.60 1017.84 1018.07 1018.25 1018.34 1018.34 1018.24 1018.04 1017.77 1017.45 1017.14 1016.85 1016.63 1016.47 1016.39 1016.37 1016.37 1016.38 1016.36 1016.29 1016.15 1015.96 1015.72 1015.45 1015.18 1014.94 1014.73 1014.57 1014.45 1014.36 1014.30 1014.23 1014.16 1014.07 1013.97 1013.87
1016.94 1017.25 1017.48 1017.66 1017.84 1018.02 1018.23 1018.46 1018.69 1018.89 1019.02 1019.07 1019.01 1018.83 1018.56 1018.23 1017.86 1017.51 1017.21 1016.98 1016.85 1016.80 1016.81 1016.85 1016.87 1016.86 1016.77 1016.60 1016.34 1016.02 1015.65 1015.28 1014.92 1014.60 1014.34 1014.14 1013.98 1013.86 1013.76 1013.66 1013.56 1013.45 1013.34
1017.76 1018.04 1018.23 1018.38 1018.53 1018.69 1018.89 1019.11 1019.32 1019.51 1019.62 1019.64 1019.54 1019.34 1019.04 1018.68 1018.31 1017.96 1017.68 1017.49 1017.40 1017.39 1017.44 1017.52 1017.57 1017.55 1017.44 1017.23 1016.90 1016.48 1016.01 1015.51 1015.02 1014.57 1014.18 1013.86 1013.61 1013.41 1013.25 1013.11 1012.98 1012.85 1012.73
1018.32 1018.55 1018.70 1018.82 1018.95 1019.10 1019.28 1019.50 1019.71 1019.89 1020.01 1020.02 1019.93 1019.73 1019.45 1019.11 1018.77 1018.46 1018.23 1018.09 1018.05 1018.10 1018.20 1018.31 1018.38 1018.36 1018.22 1017.96 1017.56 1017.04 1016.45 1015.83 1015.20 1014.62 1014.11 1013.67 1013.31 1013.02 1012.78 1012.59 1012.41 1012.26 1012.12
1018.66 1018.84 1018.95 1019.04 1019.14 1019.28 1019.46 1019.67 1019.89 1020.08 1020.20 1020.24 1020.17 1020.01 1019.77 1019.48 1019.20 1018.96 1018.79 1018.72 1018.74 1018.84 1018.97 1019.10 1019.18 1019.15 1018.98 1018.66 1018.20 1017.60 1016.92 1016.18 1015.44 1014.75 1014.12 1013.57 1013.11 1012.73 1012.42 1012.16 1011.93 1011.73 1011.55
1018.88 1019.01 1019.08 1019.14 1019.23 1019.35 1019.52 1019.72 1019.94 1020.13 1020.27 1020.33 1020.31 1020.19 1020.00 1019.79 1019.57 1019.40 1019.29 1019.28 1019.35 1019.48 1019.64 1019.78 1019.84 1019.79 1019.59 1019.24 1018.72 1018.07 1017.32 1016.51 1015.70 1014.93 1014.22 1013.60 1013.07 1012.62 1012.24 1011.91 1011.61 1011.35 1011.11
1019.13 1019.22 1019.26 1019.29 1019.36 1019.46 1019.61 1019.80 1020.00 1020.18 1020.32 1020.39 1020.39 1020.31 1020.17 1020.01 1019.85 1019.74 1019.68 1019.71 1019.81 1019.96 1020.12 1020.24 1020.29 1020.21 1019.99 1019.60 1019.06 1018.38 1017.62 1016.80 1015.97 1015.18 1014.44 1013.79 1013.22 1012.72 1012.29 1011.90 1011.53 1011.19 1010.86
Thickness
5811 5808 5804 5801 5797 5791 5786 5782 5778 5776 5772 5771 5769 5766 5765 5765 5764 5763 5761 5760 5759 5759 5758 5760 5758 5759 5760 5758 5760 5759 5758 5758 5758 5756 5754 5755 5757 5755 5754 5753 5752 5751 5749
5810 5808 5806 5803 5799 5794 5789 5785 5781 5779 5776 5774 5771 5769 5767 5767 5766 5764 5762 5760 5760 5759 5760 5758 5760 5760 5759 5758 5758 5757 5757 5758 5758 5755 5751 5748 5748 5749 5752 5750 5748 5747 5745
5814 5811 5808 5806 5803 5798 5794 5791 5786 5783 5779 5777 5775 5772 5768 5767 5766 5764 5763 5762 5760 5760 5759 5759 5760 5759 5760 5759 5758 5757 5755 5754 5756 5757 5751 5746 5742 5743 5745 5744 5743 5742 5741
5822 5818 5814 5810 5807 5803 5800 5794 5789 5785 5782 5779 5777 5773 5769 5767 5766 5765 5765 5763 5761 5761 5760 5760 5759 5759 5761 5759 5759 5759 5757 5754 5753 5754 5754 5752 5749 5741 5737 5738 5739 5738 5736
5829 5824 5820 5816 5813 5809 5804 5798 5792 5788 5785 5782 5778 5774 5773 5771 5770 5767 5764 5763 5763 5761 5761 5760 5760 5759 5760 5759 5758 5757 5756 5756 5754 5753 5752 5750 5748 5747 5738 5731 5731 5731 5731
5833 5829 5826 5821 5816 5813 5808 5802 5795 5789 5787 5783 5780 5776 5773 5770 5768 5765 5764 5764 5764 5763 5761 5761 5760 5759 5759 5758 5758 5757 5757 5755 5754 5753 5752 5749 5746 5743 5739 5733 5729 5726 5725
5836 5830 5826 5821 5817 5813 5809 5805 5797 5791 5788 5785 5781 5778 5774 5771 5767 5767 5765 5764 5764 5763 5760 5761 5759 5759 5759 5758 5758 5757 5756 5755 5752 5751 5752 5751 5748 5745 5740 5734 5729 5724 5721
5838 5833 5830 5825 5820 5816 5811 5806 5800 5794 5790 5786 5782 5779 5776 5774 5772 5768 5768 5765 5764 5763 5761 5759 5758 5758 5757 5758 5756 5757 5755 5753 5752 5751 5749 5748 5747 5745 5741 5735 5730 5723 5718
5839 5836 5833 5829 5824 5818 5813 5809 5802 5796 5792 5788 5784 5780 5777 5774 5772 5769 5767 5766 5763 5763 5760 5758 5757 5756 5755 5754 5754 5753 5751 5750 5750 5749 5746 5745 5744 5742 5739 5736 5731 5725 5717
5839 5837 5834 5830 5826 5822 5816 5811 5804 5798 5794 5790 5786 5783 5778 5774 5771 5769 5766 5764 5762 5760 5758 5757 5755 5754 5753 5751 5750 5750 5748 5746 5745 5743 5741 5739 5740 5737 5735 5733 5729 5727 5720
5839 5837 5834 5831 5827 5822 5817 5810 5805 5799 5794 5791 5787 5782 5779 5775 5772 5768 5766 5763 5761 5758 5756 5754 5753 5751 5749 5748 5746 5746 5744 5742 5740 5739 5737 5734 5733 5732 5731 5728 5725 5722 5717
5839 5837 5834 5829 5824 5819 5816 5811 5806 5800 5796 5792 5787 5782 5778 5775 5771 5768 5765 5762 5759 5757 5754 5752 5750 5748 5746 5744 5742 5741 5740 5738 5735 5733 5732 5730 5729 5726 5725 5723 5720 5716 5711
5835 5834 5830 5826 5821 5818 5814 5811 5807 5802 5798 5792 5786 5781 5777 5773 5770 5766 5763 5760 5757 5754 5752 5749 5746 5744 5742 5740 5739 5737 5735 5733 5731 5729 5726 5725 5723 5720 5719 5716 5714 5710 5706
5830 5829 5825 5822 5820 5816 5812 5809 5806 5802 5797 5791 5785 5780 5776 5772 5769 5765 5761 5758 5755 5752 5749 5746 5743 5741 5739 5737 5735 5733 5730 5728 5726 5724 5722 5719 5717 5714 5712 5710 5706 5703 5699
5825 5824 5822 5820 5816 5813 5809 5806 5802 5799 5795 5789 5784 5779 5775 5771 5767 5763 5759 5755 5752 5749 5745 5742 5740 5738 5736 5734 5730 5729 5726 5723 5721 5718 5716 5713 5709 5706 5705 5705 5701 5697 5694
5822 5821 5819 5816 5812 5810 5806 5803 5799 5796 5792 5787 5782 5777 5773 5769 5765 5761 5756 5752 5748 5745 5742 5738 5736 5734 5732 5724 5722 5722 5721 5718 5716 5713 5711 5709 5705 5700 5696 5693 5691 5689 5687
5819 5818 5816 5814 5811 5809 5806 5800 5797 5793 5788 5783 5779 5774 5771 5766 5762 5759 5753 5748 5744 5741 5737 5734 5731 5728 5722 5717 5716 5714 5715 5713 5710 5707 5706 5706 5701 5697 5694 5688 5684 5681 5678
5816 5815 5814 5812 5810 5807 5804 5800 5796 5791 5785 5780 5776 5772 5768 5764 5759 5754 5749 5745 5741 5737 5734 5730 5727 5722 5717 5712 5710 5708 5709 5707 5703 5701 5698 5696 5693 5691 5688 5686 5681 5677 5672
5813 5812 5812 5810 5807 5803 5800 5795 5791 5787 5781 5776 5772 5769 5766 5761 5756 5750 5745 5741 5737 5733 5730 5726 5722 5718 5712 5706 5704 5702 5705 5701 5698 5695 5691 5689 5685 5680 5678 5678 5674 5670 5666
5807 5806 5806 5804 5800 5798 5795 5789 5784 5780 5776 5772 5769 5767 5763 5758 5752 5747 5742 5738 5734 5730 5727 5722 5718 5714 5709 5701 5699 5697 5701 5696 5694 5688 5684 5678 5676 5672 5670 5671 5668 5664 5660
5799 5799 5798 5795 5792 5791 5788 5782 5779 5775 5773 5769 5765 5761 5757 5753 5748 5743 5738 5734 5730 5726 5722 5717 5713 5709 5704 5697 5693 5691 5694 5692 5689 5686 5681 5675 5668 5665 5662 5661 5660 5656 5653
5789 5790 5788 5786 5785 5783 5780 5775 5771 5770 5768 5763 5759 5755 5751 5748 5744 5738 5733 5729 5724 5720 5716 5712 5708 5705 5699 5693 5688 5685 5682 5681 5680 5678 5675 5668 5660 5658 5655 5654 5650 5648 5645
5780 5781 5780 5777 5776 5775 5773 5769 5766 5764 5761 5757 5753 5749 5746 5742 5738 5734 5729 5724 5719 5718 5715 5711 5707 5703 5698 5690 5682 5678 5674 5671 5671 5669 5662 5658 5653 5651 5649 5645 5643 5641 5642
5770 5771 5770 5768 5767 5766 5765 5763 5760 5757 5754 5750 5746 5743 5739 5736 5732 5729 5727 5723 5719 5715 5712 5708 5704 5700 5694 5689 5682 5676 5670 5664 5663 5661 5654 5650 5647 5646 5643 5641 5639 5638 5637
5762 5763 5761 5761 5760 5758 5757 5756 5753 5750 5747 5743 5739 5737 5734 5731 5726 5723 5720 5718 5714 5712 5706 5704 5701 5696 5690 5683 5676 5673 5669 5666 5661 5655 5653 5650 5648 5645 5643 5640 5637 5634 5631
5752 5753 5753 5752 5751 5750 5748 5747 5746 5743 5739 5735 5733 5732 5729 5725 5722 5717 5711 5704 5703 5698 5695 5692 5690 5687 5681 5673 5667 5662 5658 5654 5650 5649 5649 5647 5645 5642 5639 5637 5633 5629 5625